Location: Newark
(22.3060°N, 114.2134°E)
Time: 01:44:15
(UTC+00:00)

Vanguard 2 - Pass Details

Date: 09 August 2021
Orbit: 553 x 2937 km, 32.9° (Epoch: 27 September)

Event Time Altitude Azimuth Distance (km) Brightness Sun altitude
Rises 20:40:48 0° 299° (WNW) 2,810 - -17.6°
Exits shadow 20:42:54 - 311° (NW) 2,048 9.5 -17.1°
Reaches altitude 10° 20:43:34 10° 318° (NW) 1,829 9.3 -17.0°
Maximum altitude 20:46:34 20° 7° (N) 1,308 9.1 -16.4°
Drops below altitude 10° 20:49:43 10° 57° (ENE) 1,927 10.9 -15.7°
Sets 20:52:44 0° 74° (ENE) 3,018 12.4 -15.1°
